TimeEST,TemperatureF,Dew PointF,Humidity,Sea Level PressureIn,VisibilityMPH,Wind Direction,Wind SpeedMPH,Gust SpeedMPH,PrecipitationIn,Events,Conditions,WindDirDegrees,DateUTC
12:56 AM,46.0,39.9,79,29.67,10.0,West,21.9,34.5,0.00,,Clear,260,2013-01-31 05:56:00
1:56 AM,44.1,33.1,65,29.73,10.0,West,20.7,38.0,N/A,,Clear,260,2013-01-31 06:56:00
2:56 AM,43.0,32.0,65,29.76,10.0,West,18.4,25.3,N/A,,Partly Cloudy,260,2013-01-31 07:56:00
3:56 AM,41.0,28.9,62,29.81,10.0,West,16.1,26.5,N/A,,Clear,270,2013-01-31 08:56:00
4:56 AM,39.0,25.0,57,29.84,10.0,West,18.4,34.5,N/A,,Clear,280,2013-01-31 09:56:00
5:56 AM,37.9,25.0,60,29.88,10.0,WNW,13.8,-,N/A,,Clear,290,2013-01-31 10:56:00
6:56 AM,37.0,26.1,65,29.92,10.0,West,17.3,24.2,N/A,,Clear,270,2013-01-31 11:56:00
7:56 AM,37.0,25.0,62,29.96,10.0,West,16.1,-,N/A,,Clear,270,2013-01-31 12:56:00
8:56 AM,39.0,25.0,57,29.98,10.0,West,11.5,20.7,N/A,,Clear,280,2013-01-31 13:56:00
9:56 AM,39.9,23.0,51,30.00,10.0,West,18.4,27.6,N/A,,Clear,280,2013-01-31 14:56:00
10:56 AM,42.1,24.1,49,30.01,10.0,West,15.0,20.7,N/A,,Clear,260,2013-01-31 15:56:00
11:56 AM,45.0,23.0,42,30.01,10.0,WSW,19.6,26.5,N/A,,Clear,250,2013-01-31 16:56:00
12:56 PM,46.0,23.0,40,30.01,10.0,West,17.3,25.3,N/A,,Clear,260,2013-01-31 17:56:00
1:56 PM,48.0,23.0,37,30.00,10.0,West,19.6,29.9,N/A,,Partly Cloudy,270,2013-01-31 18:56:00
2:56 PM,50.0,19.0,29,30.01,10.0,West,16.1,29.9,N/A,,Clear,270,2013-01-31 19:56:00
3:56 PM,50.0,19.0,29,30.03,10.0,West,17.3,31.1,N/A,,Clear,270,2013-01-31 20:56:00
4:56 PM,48.9,19.0,31,30.03,10.0,West,16.1,24.2,N/A,,Clear,270,2013-01-31 21:56:00
5:56 PM,46.0,19.9,35,30.04,10.0,West,16.1,21.9,N/A,,Clear,260,2013-01-31 22:56:00
6:56 PM,44.1,21.0,40,30.06,10.0,West,11.5,-,N/A,,Clear,270,2013-01-31 23:56:00
7:56 PM,41.0,23.0,49,30.08,10.0,WSW,10.4,-,N/A,,Clear,240,2013-02-01 00:56:00
9:56 PM,41.0,24.1,51,30.11,10.0,WSW,12.7,-,N/A,,Clear,240,2013-02-01 02:56:00
10:56 PM,41.0,25.0,53,30.11,10.0,WSW,11.5,-,N/A,,Clear,250,2013-02-01 03:56:00
11:56 PM,41.0,25.0,53,30.12,10.0,WSW,11.5,-,N/A,,Clear,240,2013-02-01 04:56:00